FDX5454 KATL-KMEM

Flight info

Callsign FDX5454
Flight time 0h 54m
Altitude 30000
Route NASSA2 CHOOK WASER VANZE3
Aircraft B77L/H-D/C

Departure

Time 2026-05-08 00:55
Airport Hartsfield Jackson Atlanta International Airport (KATL)

Arrival

Time 2026-05-08 01:49
Airport Memphis International Airport (KMEM)
Time Latitude Longitude Altitude Speed Heading
2026-05-08 00:33 33.62744 -84.42945 1011 ft 0 kts 269°
2026-05-08 00:43 33.62744 -84.42942 1011 ft 1 kts 269°
2026-05-08 00:43 33.62744 -84.42921 1011 ft 3 kts 271°
2026-05-08 00:43 33.62743 -84.42897 1011 ft 3 kts 271°
2026-05-08 00:43 33.62743 -84.42879 1011 ft 3 kts 277°
2026-05-08 00:44 33.62739 -84.42859 1011 ft 3 kts 320°
2026-05-08 00:44 33.62723 -84.42852 1011 ft 3 kts
2026-05-08 00:44 33.62707 -84.42853 1011 ft 1 kts
2026-05-08 00:44 33.62706 -84.42853 1011 ft 1 kts 360°
2026-05-08 00:46 33.62723 -84.42853 1011 ft 8 kts 359°
2026-05-08 00:46 33.62795 -84.42853 1011 ft 11 kts 360°
2026-05-08 00:46 33.62871 -84.42853 1011 ft 11 kts 360°
2026-05-08 00:46 33.62945 -84.42839 1011 ft 11 kts 35°
2026-05-08 00:47 33.62964 -84.42753 1011 ft 11 kts 91°
2026-05-08 00:47 33.62969 -84.42662 1011 ft 11 kts 72°
2026-05-08 00:47 33.63017 -84.42587 1010 ft 11 kts 46°
2026-05-08 00:47 33.63066 -84.42512 1010 ft 12 kts 65°
2026-05-08 00:48 33.63073 -84.42415 1010 ft 12 kts 90°
2026-05-08 00:48 33.63073 -84.42316 1010 ft 12 kts 90°
2026-05-08 00:48 33.63073 -84.42201 1010 ft 15 kts 90°
2026-05-08 00:48 33.63073 -84.42062 1010 ft 18 kts 90°
2026-05-08 00:49 33.63073 -84.41962 1011 ft 6 kts 89°
2026-05-08 00:49 33.63080 -84.41912 1011 ft 7 kts 69°
2026-05-08 00:49 33.63119 -84.41866 1011 ft 10 kts 18°
2026-05-08 00:49 33.63200 -84.41859 1010 ft 13 kts
2026-05-08 00:50 33.63294 -84.41826 1011 ft 14 kts 16°
2026-05-08 00:50 33.63353 -84.41807 1011 ft 0 kts 15°
2026-05-08 00:50 33.63354 -84.41806 1011 ft 1 kts 15°
2026-05-08 00:51 33.63375 -84.41799 1011 ft 6 kts 15°
2026-05-08 00:51 33.63454 -84.41776 1010 ft 17 kts
2026-05-08 00:51 33.63560 -84.41754 1010 ft 12 kts 32°
2026-05-08 00:51 33.63581 -84.41645 1010 ft 16 kts 90°
2026-05-08 00:52 33.63579 -84.41491 1010 ft 21 kts 90°
2026-05-08 00:52 33.63581 -84.41298 1010 ft 24 kts 90°
2026-05-08 00:52 33.63582 -84.41099 1011 ft 24 kts 90°
2026-05-08 00:52 33.63581 -84.40902 1011 ft 22 kts 90°
2026-05-08 00:53 33.63580 -84.40812 1011 ft 7 kts 91°
2026-05-08 00:53 33.63561 -84.40761 1012 ft 7 kts 135°
2026-05-08 00:53 33.63510 -84.40742 1011 ft 9 kts 178°
2026-05-08 00:53 33.63471 -84.40796 1011 ft 10 kts 263°
2026-05-08 00:54 33.63471 -84.40813 1012 ft 0 kts 270°
2026-05-08 00:54 33.63471 -84.40859 1012 ft 32 kts 270°
2026-05-08 00:54 33.63472 -84.41593 1010 ft 142 kts 270°
2026-05-08 00:54 33.63463 -84.43089 1356 ft 200 kts 269°
2026-05-08 00:55 33.63404 -84.44796 2533 ft 195 kts 272°
2026-05-08 00:55 33.63407 -84.46425 3715 ft 205 kts 273°
2026-05-08 00:55 33.63422 -84.48264 4083 ft 237 kts 272°
2026-05-08 00:55 33.63433 -84.50282 4839 ft 249 kts 271°
2026-05-08 00:56 33.63441 -84.52364 5937 ft 247 kts 271°
2026-05-08 00:56 33.63445 -84.54410 7133 ft 243 kts 270°
2026-05-08 00:56 33.63449 -84.56430 8280 ft 241 kts 270°
2026-05-08 00:56 33.63452 -84.58444 9359 ft 242 kts 270°
2026-05-08 00:57 33.63453 -84.60481 10319 ft 246 kts 270°
2026-05-08 00:57 33.63453 -84.62596 10887 ft 265 kts 270°
2026-05-08 00:57 33.63454 -84.64940 11114 ft 295 kts 270°
2026-05-08 00:57 33.63459 -84.67519 11468 ft 318 kts 271°
2026-05-08 00:58 33.63472 -84.70201 12372 ft 324 kts 271°
2026-05-08 00:58 33.63492 -84.72909 13461 ft 324 kts 272°
2026-05-08 00:58 33.63699 -84.75594 14491 ft 323 kts 277°
2026-05-08 00:58 33.64051 -84.78266 15364 ft 326 kts 278°
2026-05-08 00:59 33.64435 -84.80944 16170 ft 332 kts 278°
2026-05-08 00:59 33.64826 -84.83691 16970 ft 336 kts 278°
2026-05-08 00:59 33.65211 -84.86479 17831 ft 339 kts 277°
2026-05-08 00:59 33.65589 -84.89285 18621 ft 342 kts 277°
2026-05-08 01:00 33.65964 -84.92121 19307 ft 346 kts 277°
2026-05-08 01:00 33.66337 -84.94988 20008 ft 349 kts 277°
2026-05-08 01:00 33.66712 -84.97887 20736 ft 352 kts 277°
2026-05-08 01:00 33.67087 -85.00804 21443 ft 355 kts 277°
2026-05-08 01:01 33.67463 -85.03742 22121 ft 358 kts 277°
2026-05-08 01:01 33.67837 -85.06674 22761 ft 361 kts 277°
2026-05-08 01:01 33.68224 -85.09711 23411 ft 365 kts 277°
2026-05-08 01:01 33.68604 -85.12696 23966 ft 368 kts 277°
2026-05-08 01:02 33.68991 -85.15741 24503 ft 370 kts 277°
2026-05-08 01:02 33.69380 -85.18813 25028 ft 373 kts 277°
2026-05-08 01:02 33.69769 -85.21913 25546 ft 376 kts 276°
2026-05-08 01:02 33.69968 -85.25064 26079 ft 378 kts 270°
2026-05-08 01:03 33.69936 -85.28197 26573 ft 381 kts 269°
2026-05-08 01:03 33.69864 -85.31393 27030 ft 384 kts 268°
2026-05-08 01:03 33.69790 -85.34610 27531 ft 387 kts 268°
2026-05-08 01:03 33.69724 -85.37865 28022 ft 390 kts 268°
2026-05-08 01:04 33.69668 -85.41144 28496 ft 393 kts 269°
2026-05-08 01:04 33.69620 -85.44435 28950 ft 396 kts 268°
2026-05-08 01:04 33.69575 -85.47753 29407 ft 399 kts 268°
2026-05-08 01:04 33.69532 -85.51084 29924 ft 399 kts 268°
2026-05-08 01:05 33.69490 -85.54407 30569 ft 395 kts 268°
2026-05-08 01:05 33.69449 -85.57657 31181 ft 392 kts 268°
2026-05-08 01:05 33.69406 -85.60929 31728 ft 390 kts 268°
2026-05-08 01:05 33.69362 -85.64196 32042 ft 393 kts 268°
2026-05-08 01:06 33.69317 -85.67498 32026 ft 394 kts 268°
2026-05-08 01:06 33.69225 -85.74048 32033 ft 393 kts 268°
2026-05-08 01:07 33.69127 -85.80682 32050 ft 405 kts 268°
2026-05-08 01:07 33.69023 -85.87533 32040 ft 414 kts 268°
2026-05-08 01:08 33.68915 -85.94453 32053 ft 413 kts 268°
2026-05-08 01:08 33.68803 -86.01346 32017 ft 413 kts 268°
2026-05-08 01:09 33.69367 -86.08187 32039 ft 413 kts 280°
2026-05-08 01:09 33.70650 -86.14884 32032 ft 414 kts 279°
2026-05-08 01:10 33.71890 -86.21655 32054 ft 415 kts 279°
2026-05-08 01:10 33.73112 -86.28445 32023 ft 416 kts 279°
2026-05-08 01:11 33.74330 -86.35255 32030 ft 416 kts 279°
2026-05-08 01:11 33.75541 -86.42056 32024 ft 416 kts 279°
2026-05-08 01:12 33.76743 -86.48821 32024 ft 416 kts 279°
2026-05-08 01:12 33.77950 -86.55635 32032 ft 415 kts 279°
2026-05-08 01:13 33.79144 -86.62397 32037 ft 415 kts 279°
2026-05-08 01:13 33.80340 -86.69199 32039 ft 416 kts 279°
2026-05-08 01:14 33.81534 -86.76008 32036 ft 416 kts 279°
2026-05-08 01:14 33.82717 -86.82777 32042 ft 416 kts 278°
2026-05-08 01:15 33.83905 -86.89600 32039 ft 416 kts 278°
2026-05-08 01:15 33.85088 -86.96424 32018 ft 416 kts 278°
2026-05-08 01:16 33.86270 -87.03256 32021 ft 417 kts 278°
2026-05-08 01:16 33.87448 -87.10093 32006 ft 417 kts 278°
2026-05-08 01:17 33.88615 -87.16892 32021 ft 417 kts 278°
2026-05-08 01:17 33.89595 -87.22615 32061 ft 417 kts 278°
2026-05-08 01:18 33.90953 -87.30577 32067 ft 417 kts 278°
2026-05-08 01:18 33.92116 -87.37419 32067 ft 417 kts 278°
2026-05-08 01:19 33.93085 -87.43125 32093 ft 418 kts 278°
2026-05-08 01:19 33.95314 -87.49652 32061 ft 428 kts 294°
2026-05-08 01:20 33.98365 -87.55822 32041 ft 428 kts 293°
2026-05-08 01:20 34.01334 -87.61998 32040 ft 429 kts 293°
2026-05-08 01:21 34.04306 -87.68242 32022 ft 429 kts 293°
2026-05-08 01:21 34.07272 -87.74490 32017 ft 430 kts 293°
2026-05-08 01:22 34.10247 -87.80766 32027 ft 430 kts 293°
2026-05-08 01:22 34.11710 -87.83841 32004 ft 411 kts 292°
2026-05-08 01:22 34.13095 -87.86753 31658 ft 400 kts 292°
2026-05-08 01:22 34.14467 -87.89657 31163 ft 398 kts 292°
2026-05-08 01:23 34.15860 -87.92630 30726 ft 415 kts 292°
2026-05-08 01:23 34.17304 -87.95710 30274 ft 424 kts 292°
2026-05-08 01:23 34.18781 -87.98841 29807 ft 431 kts 292°
2026-05-08 01:24 34.21764 -88.05094 29676 ft 420 kts 294°
2026-05-08 01:24 34.23254 -88.08071 29370 ft 418 kts 294°
2026-05-08 01:24 34.24772 -88.11078 28688 ft 418 kts 295°
2026-05-08 01:24 34.26282 -88.14072 28084 ft 415 kts 295°
2026-05-08 01:25 34.27780 -88.17053 27461 ft 412 kts 295°
2026-05-08 01:25 34.29266 -88.20028 26882 ft 416 kts 295°
2026-05-08 01:25 34.30766 -88.23043 26308 ft 420 kts 295°
2026-05-08 01:25 34.32277 -88.26078 25743 ft 421 kts 295°
2026-05-08 01:26 34.33766 -88.29065 25176 ft 418 kts 295°
2026-05-08 01:26 34.35282 -88.32118 24803 ft 417 kts 295°
2026-05-08 01:26 34.36757 -88.35098 24530 ft 419 kts 295°
2026-05-08 01:26 34.38256 -88.38131 24040 ft 419 kts 296°
2026-05-08 01:27 34.39747 -88.41149 23566 ft 415 kts 296°
2026-05-08 01:27 34.41228 -88.44144 22920 ft 412 kts 296°
2026-05-08 01:27 34.42688 -88.47102 22296 ft 406 kts 296°
2026-05-08 01:27 34.44128 -88.50019 21682 ft 401 kts 296°
2026-05-08 01:28 34.45554 -88.52914 21075 ft 396 kts 296°
2026-05-08 01:28 34.46957 -88.55763 20566 ft 392 kts 296°
2026-05-08 01:28 34.48346 -88.58592 20060 ft 389 kts 296°
2026-05-08 01:28 34.49715 -88.61380 19570 ft 391 kts 296°
2026-05-08 01:29 34.51111 -88.64229 19088 ft 393 kts 296°
2026-05-08 01:29 34.52506 -88.67074 18608 ft 392 kts 296°
2026-05-08 01:29 34.53897 -88.69912 18100 ft 390 kts 296°
2026-05-08 01:29 34.55282 -88.72739 17553 ft 389 kts 297°
2026-05-08 01:30 34.56660 -88.75555 17021 ft 387 kts 297°
2026-05-08 01:30 34.58032 -88.78362 16417 ft 385 kts 297°
2026-05-08 01:30 34.59386 -88.81132 15967 ft 378 kts 297°
2026-05-08 01:30 34.60719 -88.83859 15551 ft 371 kts 297°
2026-05-08 01:31 34.62023 -88.86531 15128 ft 365 kts 297°
2026-05-08 01:31 34.63280 -88.89128 14725 ft 357 kts 296°
2026-05-08 01:31 34.64218 -88.91858 14312 ft 346 kts 284°
2026-05-08 01:31 34.64781 -88.94668 13926 ft 339 kts 283°
2026-05-08 01:32 34.65332 -88.97415 13483 ft 333 kts 283°
2026-05-08 01:32 34.65899 -89.00117 13032 ft 327 kts 284°
2026-05-08 01:32 34.66472 -89.02772 12603 ft 322 kts 284°
2026-05-08 01:32 34.67041 -89.05385 12173 ft 317 kts 284°
2026-05-08 01:33 34.67604 -89.07966 11758 ft 313 kts 285°
2026-05-08 01:33 34.68133 -89.10515 11337 ft 309 kts 284°
2026-05-08 01:33 34.68624 -89.13055 10929 ft 307 kts 283°
2026-05-08 01:33 34.69104 -89.15578 10525 ft 305 kts 283°
2026-05-08 01:34 34.69574 -89.18042 10150 ft 302 kts 284°
2026-05-08 01:34 34.70043 -89.20496 10007 ft 297 kts 284°
2026-05-08 01:34 34.70516 -89.22954 10005 ft 300 kts 284°
2026-05-08 01:34 34.70991 -89.25423 9989 ft 298 kts 284°
2026-05-08 01:35 34.71461 -89.27871 9978 ft 295 kts 284°
2026-05-08 01:35 34.71903 -89.30303 9986 ft 294 kts 281°
2026-05-08 01:35 34.72192 -89.32773 9961 ft 297 kts 278°
2026-05-08 01:35 34.72431 -89.35296 9560 ft 303 kts 278°
2026-05-08 01:36 34.72670 -89.37865 8988 ft 306 kts 278°
2026-05-08 01:36 34.72901 -89.40408 8501 ft 304 kts 278°
2026-05-08 01:36 34.73131 -89.42962 8023 ft 303 kts 278°
2026-05-08 01:36 34.73360 -89.45506 7560 ft 302 kts 278°
2026-05-08 01:37 34.73585 -89.48039 7111 ft 301 kts 278°
2026-05-08 01:37 34.73806 -89.50564 6650 ft 300 kts 278°
2026-05-08 01:37 34.73844 -89.51008 6556 ft 300 kts 278°
2026-05-08 01:37 34.73848 -89.51051 6548 ft 300 kts 278°
2026-05-08 01:38 34.73941 -89.52130 6312 ft 301 kts 278°
2026-05-08 01:38 34.74143 -89.54454 5795 ft 303 kts 277°
2026-05-08 01:38 34.74374 -89.57007 5245 ft 304 kts 277°
2026-05-08 01:39 34.74623 -89.59570 4697 ft 305 kts 277°
2026-05-08 01:39 34.74881 -89.62088 4223 ft 303 kts 277°
2026-05-08 01:39 34.74936 -89.62622 4179 ft 301 kts 278°
2026-05-08 01:40 34.75023 -89.63455 4113 ft 297 kts 278°
2026-05-08 01:40 34.75099 -89.64172 4054 ft 294 kts 278°
2026-05-08 01:40 34.75215 -89.65284 3989 ft 288 kts 278°
2026-05-08 01:40 34.75461 -89.67627 3978 ft 270 kts 278°
2026-05-08 01:41 34.75696 -89.69852 3981 ft 263 kts 278°
2026-05-08 01:41 34.75928 -89.72057 3986 ft 262 kts 278°
2026-05-08 01:41 34.76015 -89.72872 3988 ft 262 kts 278°
2026-05-08 01:41 34.76249 -89.75075 3992 ft 262 kts 278°
2026-05-08 01:42 34.76483 -89.77277 3987 ft 262 kts 278°
2026-05-08 01:42 34.76714 -89.79447 3989 ft 262 kts 278°
2026-05-08 01:42 34.76950 -89.81648 3991 ft 262 kts 278°
2026-05-08 01:42 34.77400 -89.83756 3976 ft 258 kts 298°
2026-05-08 01:43 34.78400 -89.85542 3814 ft 254 kts 308°
2026-05-08 01:43 34.79471 -89.87235 3458 ft 252 kts 308°
2026-05-08 01:43 34.80542 -89.88931 3067 ft 252 kts 308°
2026-05-08 01:43 34.81607 -89.90617 2694 ft 251 kts 308°
2026-05-08 01:44 34.82746 -89.92196 2311 ft 247 kts 318°
2026-05-08 01:44 34.84041 -89.93550 1998 ft 242 kts 321°
2026-05-08 01:44 34.85292 -89.94818 1985 ft 225 kts 321°
2026-05-08 01:44 34.86445 -89.96001 1965 ft 207 kts 321°
2026-05-08 01:45 34.87511 -89.97104 2042 ft 199 kts 320°
2026-05-08 01:45 34.88592 -89.98119 2005 ft 195 kts 334°
2026-05-08 01:45 34.89841 -89.98420 1995 ft 181 kts 359°
2026-05-08 01:45 34.91068 -89.98433 1865 ft 173 kts 359°
2026-05-08 01:46 34.92258 -89.98463 1683 ft 169 kts 359°
2026-05-08 01:46 34.93438 -89.98488 1530 ft 169 kts 359°
2026-05-08 01:46 34.94616 -89.98516 1420 ft 168 kts 359°
2026-05-08 01:46 34.95749 -89.98543 1274 ft 157 kts 359°
2026-05-08 01:47 34.96830 -89.98568 1104 ft 154 kts 359°
2026-05-08 01:47 34.97904 -89.98591 932 ft 152 kts 358°
2026-05-08 01:47 34.98960 -89.98616 891 ft 154 kts 358°
2026-05-08 01:48 35.01113 -89.98661 574 ft 155 kts 358°
2026-05-08 01:48 35.02183 -89.98680 394 ft 153 kts 357°
2026-05-08 01:48 35.03213 -89.98709 321 ft 136 kts 359°
2026-05-08 01:48 35.04007 -89.98723 306 ft 92 kts 359°
2026-05-08 01:49 35.04506 -89.98713 303 ft 53 kts 12°
2026-05-08 01:49 35.04643 -89.98630 306 ft 14 kts 31°
2026-05-08 01:49 35.04684 -89.98573 306 ft 8 kts 71°
2026-05-08 01:50 35.04715 -89.98521 307 ft 8 kts 29°
2026-05-08 01:50 35.04772 -89.98512 304 ft 8 kts
2026-05-08 01:50 35.04834 -89.98514 305 ft 10 kts 357°
2026-05-08 01:50 35.04906 -89.98516 304 ft 11 kts 360°
2026-05-08 01:51 35.04995 -89.98515 303 ft 14 kts
2026-05-08 01:51 35.05103 -89.98514 300 ft 17 kts
2026-05-08 01:51 35.05209 -89.98513 298 ft 17 kts
2026-05-08 01:51 35.05359 -89.98513 295 ft 23 kts
2026-05-08 01:52 35.05523 -89.98511 293 ft 24 kts
2026-05-08 01:52 35.05686 -89.98508 293 ft 24 kts
2026-05-08 01:52 35.05853 -89.98508 297 ft 24 kts 357°
2026-05-08 01:52 35.05995 -89.98518 299 ft 20 kts 355°
2026-05-08 01:53 35.06134 -89.98528 293 ft 20 kts 358°
2026-05-08 01:53 35.06223 -89.98436 286 ft 21 kts 92°
2026-05-08 01:53 35.06221 -89.98306 286 ft 0 kts 90°